WESTFORD NEEDLES, 19891

Orbit data source: Space-Track

WESTFORD NEEDLES, 19891 is space debris in LEO originally from a launch on Thu, 09 May 1963 UTC launched from the Air Force Western Test Range (AFWTR). Debris objects in space refer to the collection of defunct objects orbiting the Earth. Examples of debris include non-operational satellites, rocket bodies, and fragments generated from explosions, collisions, or faulty payload assembly.

Loading next visibility...
Identifier
19891, 1963-014ET
Orbit
LEO
Country
Flag of USUS
Related business
Manufacturer
Unknown
Mission
Spacecraft
Bus & Motor
Unknown
Mass
Unknown
Launch date (UTC)
1963-05-09 (63 years ago)
Launch vehicle
Unknown
Launch site
Air Force Western Test Range (AFWTR)
Object type
Payload
Rocket body
Debris
Shape & HBR
Unknown shape, 0.2 m
Radar Cross Section
Medium (>0.1 m² and <1 m²)

Expand to show TLE details & history
Last TLE update: 1 month ago

TLE from 1 month ago
0 WESTFORD NEEDLES
1 19891U 63014ET  26142.00676400  .00000122  00000-0  52875-1 0  9993
2 19891  87.3034 157.9443 0295690 290.4314  90.3123  8.66889784387697
Epoch: 2026-05-22T00:09Z
TLE epoch observation values (Epoch: 2026-05-22T00:09:44.409Z)
Latitude
24.11631°
Longitude
-82.93114°
Altitude
3,644.367 km
Speed
6.305 km/s
True Right ascension
10h 36m 35s
True Declination
24° 01' 31"
Sunlit
Object was in daylight at epoch
Visualization orbit readout
Latitude
Unknown
Longitude
Unknown
Altitude
Unknown
Speed
Unknown
Apparent Right ascension
Unknown
Apparent Declination
Unknown
Sunlit
N/A
Visualization observer readout
Local Sidereal Time
05:36:55
Azimuth
Unknown
Elevation
Unknown
Doppler factor
Unknown
Orbital elements
Apogee altitude
3,925.409 km
Perigee altitude
3,333.578 km
Semi-major axis
10,007.63 km
Eccentricity
0.02957
Inclination
87.3034°
RAAN
157.9443°
Arg. of periapsis
290.4314°
True anomaly
93.69795°
Mean anomaly
90.3123°
Eccentric anomaly
92.00544°
Mean motion
2.16794 °/min
Orbital period
166.06 mins
BSTAR
0.052875
Loading maneuver chart data...
Computing Atmospheric mass density...

Documentation

Showing up to 5 results
|